FW4191 Weather Reports


time (UTC)temp
C
wind
direction
speed
KPH
gust
KPH
rain 1hr
cm
rain 24hr
cm
rain mn
cm
humidity
%
barometer
mb
20260505010116 21 214 4.8 12.9 0.00 0.00 0.00 51 1069.1
20260505005118 21 115 0.0 3.2 0.00 0.00 0.00 50 1069.1
20260505003117 22 221 0.0 3.2 0.00 0.00 0.00 48 1069.2
20260505003017 22 200 1.6 6.4 0.00 0.00 0.00 47 1069.2
20260505002017 22 212 1.6 4.8 0.00 0.00 0.00 46 1069.3
20260505001917 22 297 0.0 4.8 0.00 0.00 0.00 46 1069.3
20260505001818 22 194 0.0 4.8 0.00 0.00 0.00 47 1069.2
20260505001718 22 222 6.4 16.1 0.00 0.00 0.00 47 1069.2
20260505000817 22 238 3.2 8.0 0.00 0.00 0.00 45 1069.3
20260504234719 23 194 6.4 12.9 0.00 0.00 0.00 46 1069.5
20260504233718 23 223 4.8 8.0 0.00 0.00 0.00 46 1069.7
20260504232816 23 298 3.2 6.4 0.00 0.00 0.00 48 1069.6
20260504231817 22 203 1.6 6.4 0.00 0.00 0.00 52 1069.6
20260504230816 23 225 0.0 0.0 0.00 0.00 0.00 50 1069.7
20260504225831 23 225 0.0 0.0 0.00 0.00 0.00 49 1069.9
20260504224919 23 247 0.0 0.0 0.00 0.00 0.00 47 1069.9
20260504221919 23 224 3.2 8.0 0.00 0.00 0.00 50 1070.1
20260504221016 22 167 0.0 3.2 0.00 0.00 0.00 52 1070.5
20260504220918 22 247 0.0 0.0 0.00 0.00 0.00 52 1070.5
20260504215017 22 273 0.0 0.0 0.00 0.00 0.00 51 1070.6
20260504212017 23 291 0.0 0.0 0.00 0.00 0.00 52 1071.0
20260504210036 22 203 3.2 8.0 0.00 0.00 0.00 52 1071.3
20260504205118 22 351 0.0 4.8 0.00 0.00 0.00 53 1071.2
20260504205017 22 202 0.0 0.0 0.00 0.00 0.00 53 1071.3
20260504204933 22 202 0.0 1.6 0.00 0.00 0.00 52 1071.3
20260504203931 22 236 3.2 14.5 0.00 0.00 0.00 52 1071.7
20260504203818 22 268 1.6 6.4 0.00 0.00 0.00 52 1071.6
20260504202917 22 234 3.2 9.7 0.00 0.00 0.00 53 1071.8
20260504201916 22 272 0.0 4.8 0.00 0.00 0.00 58 1071.9
20260504200918 21 258 1.6 6.4 0.00 0.00 0.00 60 1071.6
20260504200818 21 222 1.6 8.0 0.00 0.00 0.00 60 1071.6
20260504195916 20 202 0.0 3.2 0.00 0.00 0.00 64 1071.8
20260504193919 18 216 0.0 3.2 0.00 0.00 0.00 69 1072.3
20260504192919 17 67 1.6 3.2 0.00 0.00 0.00 69 1072.2
20260504191918 18 180 0.0 0.0 0.00 0.00 0.00 66 1073.2
20260504191016 18 202 0.0 3.2 0.00 0.00 0.00 60 1072.8
20260504190016 19 236 0.0 1.6 0.00 0.00 0.00 60 1073.7
20260504185017 19 233 8.0 14.5 0.00 0.00 0.00 58 1073.3
20260504184934 20 242 4.8 11.3 0.00 0.00 0.00 58 1073.3
20260504183115 20 215 4.8 9.7 0.00 0.00 0.00 54 1072.9
20260504183036 20 232 6.4 12.9 0.00 0.00 0.00 53 1072.9
20260504182117 21 271 1.6 9.7 0.00 0.00 0.00 53 1072.5
20260504181117 21 258 3.2 6.4 0.00 0.00 0.00 56 1072.2
20260504180117 21 215 8.0 14.5 0.00 0.00 0.00 57 1072.1
20260504174116 20 211 1.6 6.4 0.00 0.00 0.00 57 1072.3
20260504172016 20 242 1.6 8.0 0.00 0.00 0.00 59 1072.2
20260504171034 19 186 0.0 1.6 0.00 0.00 0.00 59 1072.3
20260504170116 19 205 3.2 8.0 0.00 0.00 0.00 59 1072.4
20260504160115 19 252 4.8 8.0 0.00 0.00 0.00 58 1073.1
20260504151118 17 221 6.4 12.9 0.00 0.00 0.00 59 1073.3
20260504141315 16 222 3.2 11.3 0.00 0.03 0.00 64 1073.6
20260504140317 15 231 8.0 11.3 0.00 0.05 0.00 66 1073.8
20260504130316 12 209 0.0 1.6 0.00 0.61 0.00 69 1074.0
20260504130216 12 250 0.0 3.2 0.00 0.64 0.00 69 1074.0
20260504120316 10 302 0.0 0.0 0.00 0.76 0.00 73 1073.8
20260504110316 7 337 0.0 0.0 0.00 0.76 0.00 82 1073.6
20260504100415 7 202 0.0 0.0 0.00 0.76 0.00 78 1073.9
20260504080316 9 218 0.0 4.8 0.00 0.76 0.00 67 1074.7
20260504050516 9 294 0.0 1.6 0.00 0.76 0.00 64 1076.5
20260504045615 9 315 0.0 0.0 0.00 0.76 0.00 63 1076.6
20260504043617 10 202 0.0 0.0 0.00 0.76 0.00 61 1076.6
20260504043515 10 202 0.0 0.0 0.00 0.76 0.00 60 1076.6
20260504042517 10 225 0.0 0.0 0.00 0.76 0.00 58 1076.7
20260504041517 11 3 0.0 0.0 0.00 0.76 0.00 57 1076.8
20260504035517 11 225 0.0 1.6 0.00 0.76 0.76 56 1077.1
20260504034533 12 313 0.0 1.6 0.00 0.76 0.76 54 1077.2
20260504032516 12 180 0.0 0.0 0.00 0.79 0.76 54 1077.3
20260504032416 12 167 0.0 0.0 0.00 0.79 0.76 55 1077.3
20260504030514 12 225 0.0 0.0 0.00 0.79 0.76 53 1077.4
20260504025532 12 263 0.0 1.6 0.00 0.79 0.76 52 1077.5
20260504024516 12 202 0.0 0.0 0.00 0.79 0.76 52 1077.7
20260504023614 12 202 0.0 0.0 0.00 0.79 0.76 50 1077.7
20260504022714 12 202 0.0 0.0 0.00 0.79 0.76 48 1077.8
20260504020815 12 202 1.6 4.8 0.00 0.79 0.76 48 1077.8
20260504020716 12 180 0.0 4.8 0.00 0.79 0.76 49 1077.8
20260504015716 12 225 0.0 0.0 0.00 0.79 0.76 49 1077.7
20260504015616 12 230 1.6 3.2 0.00 0.79 0.76 49 1077.6
20260504014614 12 225 0.0 0.0 0.00 0.79 0.76 49 1077.3
20260504013614 12 202 0.0 1.6 0.00 0.79 0.76 48 1077.3
20260504012615 12 71 0.0 0.0 0.00 0.79 0.76 50 1077.2
20260504012530 12 67 0.0 0.0 0.00 0.79 0.76 50 1077.3
20260504011614 12 218 0.0 0.0 0.00 0.79 0.76 49 1077.2